Decoded METAR for EBLB provided by aerobaticsweb.org
Current time: Monday, 25 Jan, 2021, 17:40 UTC
(This may take a minute, please be patient)


The most recent METAR observation from EBLB in our system was generated at 2021/01/25 17:25

Original METAR code

2021/01/25 17:25
EBLB 251725Z AUTO 26003KT 6000 BKN200/// M05/M05 Q1008 WHT
METAR Observation for: EBLB
Date/Time of Observation: 25 January 2021, 17:25 UTC (25 January 2021, 18:25 CET)
METAR Modifier: Automated weather observation
Wind: From 260° at 3 kts (6 km/h)
Visibility: 6000 m (3.7 sm)
Sky Conditions: Broken ceiling at 20000 ft; unknown
Temperature: -5.0° C (23.0° F)
Dew Point: -5.0° C (23.0° F)
Relative Humidity: 100%
Altimeter: 1008 hPa/mbar (29.77" Hg)
General Outlook: Ceiling >1500 ft / Visibility >5 km

This decoding software is in development. If you see any mistakes in the decoding or an unparsed field that you know how to decode, please complete the Decode report form.

24 Hour Summary

Time (UTC) Temperature
°C (°F)
Dew Point
°C (°F)
Pressure
Inches (hPa)
Wind
mph (km/h)
Weather
00:00 25 January -2 (28 ) -2 (28 ) 29.35 (0994) S 6 (10) light snow
01:00 25 January -2 (28 ) -2 (28 ) 29.38 (0995) SSW 3 (5) snow
02:00 25 January -2 (28 ) -2 (28 ) 29.38 (0995) Variable 2 (3) light snow
03:00 25 January -2 (28 ) -2 (28 ) 29.38 (0995) Variable 2 (3) light snow
04:00 25 January -2 (28 ) -2 (28 ) 29.41 (0996) Variable 2 (3) light rain, snow
05:00 25 January -2 (28 ) -2 (28 ) 29.41 (0996) W 3 (5)
06:00 25 January -2 (28 ) -2 (28 ) 29.44 (0997) WNW 6 (10) fog
16:00 25 January No Data
08:00 25 January -2 (28 ) -3 (26 ) 29.50 (0999) NW 6 (10)
09:00 25 January -2 (28 ) -3 (26 ) 29.53 (1000) WNW 6 (10)
10:00 25 January -2 (28 ) -3 (26 ) 29.56 (1001) NW 7 (11) light snow
11:00 25 January -2 (28 ) -2 (28 ) 29.59 (1002) NNW 7 (11) light rain
12:00 25 January -2 (28 ) -3 (26 ) 29.62 (1003) N 9 (14) light snow
13:00 25 January -2 (28 ) -2 (28 ) 29.65 (1004) N 7 (11) mist
14:00 25 January -2 (28 ) -3 (26 ) 29.68 (1005) N 7 (11)
15:00 25 January -3 (26 ) -4 (24 ) 29.71 (1006) NNW 5 (8)
16:00 25 January -4 (24 ) -5 (23 ) 29.74 (1007) W 3 (5)
17:00 25 January -5 (23 ) -5 (23 ) 29.77 (1008) W 3 (5)
18:00 24 January -3 (26 ) -4 (24 ) 29.44 (0997) S 6 (10)
19:00 24 January -2 (28 ) -3 (26 ) 29.41 (0996) S 8 (13) light snow
20:00 24 January -2 (28 ) -3 (26 ) 29.41 (0996) SSE 8 (13) light snow
16:00 25 January No Data
22:00 24 January -2 (28 ) -2 (28 ) 29.38 (0995) S 9 (14) light snow
23:00 24 January -2 (28 ) -2 (28 ) 29.38 (0995) S 8 (13) light snow
The information presented here is taken from products produced by the U.S. National Weather Service and other national and international agencies. Landings.com does not present this as official information. Please refer to official weather briefings for flight critical information.


access provided by Dr. Guenther Eichhorn at aerobaticsweb.org